962  
ASUS43 KDTX 021210  
RWRMI  
MICHIGAN HOURLY REGIONAL WEATHER ROUNDUP  
NATIONAL WEATHER SERVICE DETROIT/PONTIAC MI  
800 AM EDT WED SEP 02 2015  
 
NOTE: "FAIR" INDICATES FEW OR NO CLOUDS BELOW 12,000 FEET WITH NO  
SIGNIFICANT WEATHER AND/OR TO VISIBILITY
.  
 
MIZ047>049-052>055-059>063-066>070-074>076-081>083-021300-  
SOUTHEAST LOWER MICHIGAN  
 
CITY SKY/WX TMP DP RH WIND PRES REMARKS
 
ADRIAN CLEAR 68 66 93 SW6 30.09R FOG  
6HR MIN TEMP: 66; 6HR MAX TEMP: 69;  
 
ALMA CLEAR 71 71 97 SW3 30.03S FOG  
ANN ARBOR FOG 67 66 97 CALM 30.07R VSB 1  
BAD AXE SUNNY 69 68 99 CALM 30.04R FOG  
DETROIT CITY SUNNY 73 69 87 CALM 30.06R FOG  
6HR MIN TEMP: 71; 6HR MAX TEMP: 75;  
 
DETROIT MOSUNNY 70 68 93 S7 30.06S FOG  
6HR MIN TEMP: 70; 6HR MAX TEMP: 73;  
 
FLINT MOSUNNY 73 68 84 S5 30.05R HAZE  
6HR MIN TEMP: 68; 6HR MAX TEMP: 74;  
 
GROSSE ILE SUNNY 72 68 88 S6 30.05S FOG  
HILLSDALE PTCLDY 71 71 100 CALM 30.09R FOG  
6HR MIN TEMP: 69; 6HR MAX TEMP: 73;  
 
HOWELL MOCLDY 72 70 95 W5 30.07R FOG  
 
CITY SKY/WX TMP DP RH WIND PRES REMARKS
 
JACKSON LGT RAIN 71 69 93 CALM 30.08R FOG  
6HR MIN TEMP: 68; 6HR MAX TEMP: 73; 6HR PCP: TRACE;  
 
LAMBERTVILLE SUNNY 71 67 88 CALM 30.07S FOG  
6HR MIN TEMP: 69; 6HR MAX TEMP: 75;  
 
LANSING MOCLDY 72 70 93 S8 30.06R  
6HR MIN TEMP: 70; 6HR MAX TEMP: 73; 6HR PCP: TRACE;  
 
LAPEER FAIR 64 64 100 CALM 30.05S FOG  
6HR MIN TEMP: 61; 6HR MAX TEMP: 65;  
 
MASON HVY RAIN 70 65 85 SE7 30.09R  
MONROE SUNNY 69 67 93 CALM 30.06S FOG  
6HR MIN TEMP: 66; 6HR MAX TEMP: 71;  
 
MT. CLEMENS MOSUNNY 71 69 95 CALM 30.04R FOG  
6HR MIN TEMP: 67; 6HR MAX TEMP: 71;  
 
PONTIAC MOSUNNY 69 68 96 CALM 30.06R FOG  
6HR MIN TEMP: 67; 6HR MAX TEMP: 72;  
 
PORT HOPE N/A 72 69 90 SW6 30.00R  
6HR MIN TEMP: 70; 6HR MAX TEMP: 73;  
 
PORT HURON N/A 68 68 100 CALM 30.05R FOG  
TRI CITIES PTCLDY 72 69 90 SW3 30.03R FOG  
6HR MIN TEMP: 71; 6HR MAX TEMP: 74;  
 
MIDLAND FOG 70 69 97 CALM 30.01S VSB 1  
TROY SUNNY 72 69 92 CALM 30.07S FOG  
SAGINAW HB PTCLDY 70 70 100 SW3 30.02S FOG  

 
MIZ043>046-050>051-056>058-064>065-071>073-077>080-021300-  
SOUTHWEST LOWER MICHIGAN  
 
CITY SKY/WX TMP DP RH WIND PRES REMARKS
 
BATTLE CREEK PTCLDY 71 68 90 SW7 30.07R  
6HR MIN TEMP: 70; 6HR MAX TEMP: 74;  
 
BENTON HARBOR PTCLDY 71 68 90 S3 30.05R FOG  
6HR MIN TEMP: 68; 6HR MAX TEMP: 74;  
 
BIG RAPIDS CLOUDY 70 69 98 CALM 30.02R FOG  
6HR MIN TEMP: 67; 6HR MAX TEMP: 71;  
 
COLDWATER CLEAR 70 68 96 SW5 30.08R FOG  
6HR MIN TEMP: 68; 6HR MAX TEMP: 71;  
 
FREMONT FOG 70 70 100 SW3 30.02R VSB 3/4  
HOLLAND CLEAR 74 69 85 SW8 30.04R  
6HR MIN TEMP: 74; 6HR MAX TEMP: 78;  
 
GRAND RAPIDS PTCLDY 73 70 90 SW9 30.03R  
6HR MIN TEMP: 72; 6HR MAX TEMP: 75;  
 
IONIA FAIR 71 70 98 S6 30.04R FOG  
6HR MIN TEMP: 69; 6HR MAX TEMP: 74; 6HR PCP: 0.28;  
 
KALAMAZOO CLEAR 71 68 90 SW7 30.06R  
6HR MIN TEMP: 70; 6HR MAX TEMP: 72;  
 
LUDINGTON PTCLDY 72 69 91 CALM 30.01R FOG  
6HR MIN TEMP: 71; 6HR MAX TEMP: 76;  
 
MARSHALL PTCLDY 70 68 92 SW3 30.07R  
6HR MIN TEMP: 67; 6HR MAX TEMP: 72;  
 
MOUNT PLEASANT N/A 71 69 93 CALM 30.01S FOG  
6HR MIN TEMP: 69; 6HR MAX TEMP: 74;  
 
MUSKEGON MOCLDY 74 69 85 SW6 30.02R HAZE  
6HR MIN TEMP: 73; 6HR MAX TEMP: 75;  
 
SOUTH HAVEN PTCLDY 73 68 84 SW6 30.05R  

 
MIZ016>042-021300-  
NORTHERN LOWER MICHIGAN  
 
CITY SKY/WX TMP DP RH WIND PRES REMARKS
 
ALPENA PTSUNNY 71 69 93 SW5 29.99R FOG  
6HR MIN TEMP: 65; 6HR MAX TEMP: 71;  
 
BEAVER ISLAND N/A 68 67 97 CALM 29.98R FOG  
6HR MIN TEMP: 67; 6HR MAX TEMP: 72;  
 
BELLAIRE FOG 66 64 96 CALM 29.99R VSB 1/2  
6HR MIN TEMP: 65; 6HR MAX TEMP: 70;  
 
CADILLAC FOG 70 70 99 SW8 30.03R VSB<1/4  
CHARLEVOIX CLEAR 70 70 98 CALM 30.01R FOG  
FRANKFORT PTCLDY 69 69 97 CALM 29.99R FOG  
GAYLORD CLEAR 70 69 97 CALM 30.02R FOG  
6HR MIN TEMP: 69; 6HR MAX TEMP: 71;  
 
GRAYLING MOCLDY 63 62 96 CALM 30.03R FOG  
6HR MIN TEMP: 61; 6HR MAX TEMP: 71;  
 
HARBOR SPRINGS CLEAR 69 68 97 CALM 29.98R FOG  
HOUGHTON LAKE CLOUDY 70 69 97 SW3 30.03R FOG  
6HR MIN TEMP: 68; 6HR MAX TEMP: 72;  
 
MANISTEE N/A 66 64 94 CALM 30.01R VSB 3/4  
OSCODA PTSUNNY 69 68 98 SW6 29.99S FOG  
6HR MIN TEMP: 67; 6HR MAX TEMP: 71;  
 
PELLSTON PTCLDY 67 66 97 CALM 29.98R FOG  
6HR MIN TEMP: 65; 6HR MAX TEMP: 73;  
 
ROGERS CITY MOSUNNY 71 68 90 CALM 29.99R FOG  
TRAVERSE CITY PTCLDY 74 69 85 CALM 29.98R  
6HR MIN TEMP: 74; 6HR MAX TEMP: 76;  
 

 
MIZ007>008-015-021300-  
EASTERN UPPER MICHIGAN  
 
CITY SKY/WX TMP DP RH WIND PRES REMARKS
 
KINROSS CLOUDY 68 66 94 CALM 29.98R VSB 1/4  
6HR MIN TEMP: 66; 6HR MAX TEMP: 70;  
 
MACKINAC ISLAN PTCLDY 69 68 96 N3 29.98R FOG  
6HR MIN TEMP: 67; 6HR MAX TEMP: 70;  
 
NEWBERRY FOG 65 65 99 CALM 29.99R VSB 1/2  
6HR MIN TEMP: 61; 6HR MAX TEMP: 67;  
 
S. S. MARIE FOG 69 68 96 CALM 29.97R VSB 1/2  
6HR MIN TEMP: 68; 6HR MAX TEMP: 69;  
 
MUNISING N/A 67 65 93 CALM 29.98R  
6HR MIN TEMP: 66; 6HR MAX TEMP: 70;  
 

 
MIZ004>006-011>014-085-021300-  
CENTRAL UPPER MICHIGAN  
 
CITY SKY/WX TMP DP RH WIND PRES REMARKS
 
MANISTIQUE FOG 60 59 97 CALM 29.98R VSB 1  
6HR MIN TEMP: 58; 6HR MAX TEMP: 66;  
 
ESCANABA PTCLDY 63 63 100 CALM 29.96R  
6HR MIN TEMP: 61; 6HR MAX TEMP: 64;  
 
MENOMINEE N/A 68 64 88 CALM 29.96S VSB<1/4  
6HR MIN TEMP: 66; 6HR MAX TEMP: 73;  
 
SAWYER-GWINN CLEAR 63 63 100 N3 29.99S FOG  

 
MIZ001>003-009>011-084-021300-  
WESTERN UPPER MICHIGAN  
 
CITY SKY/WX TMP DP RH WIND PRES REMARKS
 
IRON MOUNTAIN MOCLDY 67 65 93 N3 29.98R FOG  
6HR MIN TEMP: 64; 6HR MAX TEMP: 69;  
 
HOUGHTON PTCLDY 59 56 89 CALM 29.98R  
6HR MIN TEMP: 57; 6HR MAX TEMP: 65;  
 
IRONWOOD CLOUDY 66 66 100 CALM 29.96R  
6HR MIN TEMP: 63; 6HR MAX TEMP: 68;  
 

 
 
ABBREVIATIONS USED IN REMARKS  
TC - TEMPERATURE IN CELSIUS  
WCI - WIND CHILL INDEX  
HX - HEAT INDEX  
VSB - VISIBILITY  
 
CLICK HERE TO GO TO PREVIOUS BULLETINS.

The Nexlab MI Page Main Text Page